Regional Weather Roundup
Issued by NWS

Home | Current Version | Previous Version | Graphics & Text | Print | Product List | Glossary On
Versions: 1 2 3 4 5 6 7 8 9 10 11 12 13 14 15 16 17 18 19 20 21 22 23 24 25 26 27 28 29 30 31 32 33 34 35 36 37 38 39 40 41 42 43 44 45 46 47 48 49 50
725
ASUS45 KCYS 261810
RWRWY

WYOMING REGIONAL WEATHER ROUNDUP
NATIONAL WEATHER SERVICE CHEYENNE WY
1200 PM MDT THU APR 26 2018

NOTE:  "FAIR" INDICATES FEW OR NO CLOUDS BELOW 12,000 FEET
WITH NO SIGNIFICANT WEATHER AND/OR OBSTRUCTIONS TO VISIBILITY.

WYZ001-261900-
YELLOWSTONE NATIONAL PARK

CITY           SKY/WX    TMP DP  RH WIND       PRES   REMARKS
LK YELLOWSTONE   N/A     40  11  30 E6        30.37F
6HR MIN TEMP:  19; 6HR MAX TEMP:  40;

W YELLOWSTONE  NOT AVBL

$$
WYZ002>013-054>058-071-098>099-261900-
NORTHERN WYOMING

CITY           SKY/WX    TMP DP  RH WIND       PRES   REMARKS
JACKSON        FAIR      52  16  24 VRB5      30.31S
CODY           FAIR      55  25  31 SE6       30.29F
GREYBULL       FAIR      55  31  39 VRB6      30.29F
6HR MIN TEMP:  34; 6HR MAX TEMP:  55;

WORLAND        FAIR      55  29  36 NE7       30.30S
6HR MIN TEMP:  30; 6HR MAX TEMP:  56;

SHERIDAN       FAIR      58  30  34 NW3       30.26F
6HR MIN TEMP:  38; 6HR MAX TEMP:  59;

BUFFALO        FAIR      55  30  38 VRB6      30.28F
6HR MIN TEMP:  38; 6HR MAX TEMP:  55;

GILLETTE       FAIR      54  29  38 W9        30.27S
6HR MIN TEMP:  36; 6HR MAX TEMP:  55;

HULETT         FAIR      54  27  35 NW3       30.26F
NEWCASTLE      FAIR      52  27  37 NW15G22   30.28S

$$
WYZ014>020-022>026-101>103-261900-
CENTRAL WYOMING

CITY           SKY/WX    TMP DP  RH WIND       PRES   REMARKS
BIG PINEY      FAIR      52  21  29 VRB3      30.33S
6HR MIN TEMP:  21; 6HR MAX TEMP:  52;

PINEDALE       FAIR      50  23  34 S7        30.34S
DUBOIS         FAIR      52  21  30 E7        30.30S
LANDER         FAIR      53  29  39 VRB3      30.29F
6HR MIN TEMP:  35; 6HR MAX TEMP:  53;

RIVERTON       FAIR      52  29  41 CALM      30.31F
6HR MIN TEMP:  35; 6HR MAX TEMP:  52;

CASPER         FAIR      52  30  43 NW8       30.31S
6HR MIN TEMP:  33; 6HR MAX TEMP:  52;

DOUGLAS        PTSUNNY   54  29  38 N8        30.30F
6HR MIN TEMP:  35; 6HR MAX TEMP:  56;


$$
WYZ021-027>030-104>119-261900-
SOUTHERN WYOMING

CITY           SKY/WX    TMP DP  RH WIND       PRES   REMARKS
EVANSTON       FAIR      57  26  30 NE8       30.30S
6HR MIN TEMP:  34; 6HR MAX TEMP:  57;

KEMMERER       FAIR      52  23  32 CALM      30.33F
FORT BRIDGER   FAIR      56  25  30 E9        30.34F
ROCK SPRINGS   FAIR      51  23  33 SW3       30.33S
6HR MIN TEMP:  32; 6HR MAX TEMP:  53;

DIXON          FAIR      53  21  28 N10       30.34F
RAWLINS        FAIR      50  22  33 N10G18    30.33F
6HR MIN TEMP:  28; 6HR MAX TEMP:  51;

SARATOGA       FAIR      46  19  34 CALM      30.34S
LARAMIE        FAIR      43  22  43 NW5       30.31F
6HR MIN TEMP:  31; 6HR MAX TEMP:  45; 6HR PCP: TRACE;

CHEYENNE       PTSUNNY   46  24  42 N15       30.30S
6HR MIN TEMP:  37; 6HR MAX TEMP:  48;

TORRINGTON     PTSUNNY   56  29  35 N15G25    30.26S
6HR MIN TEMP:  45; 6HR MAX TEMP:  57;

PINE BLUFFS    MOCLDY    52  28  40 N17G23    30.29S

$$




USA.gov is the U.S. government's official web portal to all federal, state and local government web resources and services.